Location: Fort Wayne
(41.1310°N, 85.1290°W)
Time: 12:01:43
(UTC-04:00)

Cosmos 1980 - Visible Passes

Search period start: 25 June 2016 00:00
Search period end: 05 July 2016 00:00
Orbit: 840 x 846 km, 71.0° (Epoch: 24 June)

Date Brightness Start Highest point End Pass type
(mag) Time Alt. Az. Time Alt. Az. Time Alt. Az.
25 Jun 4.0 01:00:01 10° NNW 01:05:30 52° WSW 01:06:07 49° SW visible
25 Jun 5.3 23:02:04 10° N 23:06:34 24° NE 23:10:00 14° E visible
26 Jun 3.9 00:45:29 10° NNW 00:50:59 54° WSW 00:51:50 49° SW visible
26 Jun 5.3 22:47:36 10° N 22:52:00 23° NE 22:55:44 12° E visible
27 Jun 3.9 00:30:56 10° NNW 00:36:28 57° WSW 00:37:34 48° SSW visible
27 Jun 5.3 22:33:07 10° N 22:37:27 22° NE 22:41:31 11° E visible
28 Jun 3.9 00:16:23 10° NNW 00:21:57 59° WSW 00:23:22 45° SSW visible
28 Jun 5.4 22:18:39 10° N 22:22:53 21° NE 22:27:06 10° E visible
29 Jun 3.9 00:01:51 10° NNW 00:07:26 62° WSW 00:09:10 42° S visible
29 Jun 5.4 22:04:11 10° N 22:08:19 20° NE 22:12:26 10° E visible
29 Jun 3.8 23:47:18 10° NNW 23:52:54 65° WSW 23:55:01 38° S visible
30 Jun 5.4 21:49:43 10° N 21:53:46 20° NE 21:57:47 10° E visible
30 Jun 3.8 23:32:46 10° NNW 23:38:23 68° WSW 23:40:54 33° S visible
01 Jul 3.8 23:18:14 10° NNW 23:23:51 71° WSW 23:26:49 29° S visible
02 Jul 3.8 23:03:42 10° NNW 23:09:20 74° WSW 23:12:47 24° SSE visible
03 Jul 3.8 22:49:10 10° NNW 22:54:49 77° WSW 22:58:47 20° SSE visible
04 Jul 3.7 22:34:38 10° NNW 22:40:18 81° WSW 22:44:50 16° SSE visible
